• In Moldova, Republic
  • List of Countries
  • For 7 days
  • Water Temperature
  • Satellite Maps
  • Weather Map
  • Weather Widgets
  • user-avatar
    Login

    Hourly Weather Wiktoria

    Today, 27 April, Thursday

    Time Temperature Precipitation Wind Pressure Humidity
    00:00 +7°C° 0 mm 2 mps 752 mmHg 81%
    01:00 +7°C° 0 mm 2 mps 752 mmHg 82%
    02:00 +7°C° 0 mm 2 mps 753 mmHg 83%
    03:00 +7°C° 0 mm 2 mps 753 mmHg 84%
    04:00 +8°C° 0 mm 1 mps 753 mmHg 86%
    05:00 +7°C° 0 mm 1 mps 753 mmHg 87%
    06:00 +7°C° 0 mm 1 mps 754 mmHg 88%
    07:00 +7°C° 0 mm 1 mps 754 mmHg 88%
    08:00 +8°C° 0 mm 2 mps 754 mmHg 80%
    09:00 +10°C° 0 mm 2 mps 754 mmHg 72%
    10:00 +11°C° 0 mm 3 mps 755 mmHg 64%
    11:00 +12°C° 0 mm 3 mps 754 mmHg 60%
    12:00 +13°C° 0 mm 3 mps 754 mmHg 57%
    13:00 +14°C° 0 mm 3 mps 754 mmHg 53%
    14:00 +14°C° 0 mm 3 mps 754 mmHg 54%
    15:00 +13°C° 0 mm 3 mps 754 mmHg 55%
    16:00 +14°C° 0 mm 2 mps 754 mmHg 57%
    17:00 +13°C° 0 mm 2 mps 754 mmHg 65%
    18:00 +11°C° 0 mm 1 mps 755 mmHg 72%
    19:00 +10°C° 0 mm 1 mps 755 mmHg 80%
    20:00 +9°C° 0 mm 1 mps 755 mmHg 84%
    21:00 +9°C° 0 mm 1 mps 755 mmHg 87%
    22:00 +8°C° 0 mm 1 mps 756 mmHg 90%
    23:00 +8°C° 0 mm 1 mps 756 mmHg 92%

    Tomorrow, 28 April, Friday

    Time Temperature Precipitation Wind Pressure Humidity
    00:00 +7°C° 0 mm 1 mps 756 mmHg 93%
    01:00 +7°C° 0 mm 1 mps 756 mmHg 95%
    02:00 +7°C° 0 mm 1 mps 756 mmHg 96%
    03:00 +7°C° 0 mm 1 mps 756 mmHg 97%
    04:00 +7°C° 0 mm 1 mps 755 mmHg 98%
    05:00 +6°C° 0 mm 0 mps 756 mmHg 98%
    06:00 +6°C° 0 mm 0 mps 756 mmHg 99%
    07:00 +6°C° 0 mm 0 mps 756 mmHg 99%
    08:00 +9°C° 0 mm 1 mps 756 mmHg 91%
    09:00 +12°C° 0 mm 1 mps 757 mmHg 82%
    10:00 +14°C° 0 mm 1 mps 757 mmHg 74%
    11:00 +15°C° 0 mm 1 mps 757 mmHg 72%
    12:00 +16°C° 0 mm 1 mps 756 mmHg 71%
    13:00 +18°C° 0 mm 1 mps 756 mmHg 69%
    14:00 +18°C° 0 mm 1 mps 756 mmHg 72%
    15:00 +16°C° 0 mm 1 mps 755 mmHg 74%
    16:00 +16°C° 0 mm 1 mps 755 mmHg 77%
    17:00 +15°C° 0 mm 1 mps 755 mmHg 83%
    18:00 +14°C° 0 mm 1 mps 755 mmHg 88%
    19:00 +13°C° 0 mm 1 mps 756 mmHg 93%
    20:00 +13°C° 0 mm 1 mps 756 mmHg 94%
    21:00 +12°C° 0 mm 1 mps 756 mmHg 95%
    22:00 +12°C° 0 mm 1 mps 756 mmHg 95%
    23:00 +12°C° 0 mm 1 mps 756 mmHg 96%

    Day after tomorrow, 29 April, Saturday

    Time Temperature Precipitation Wind Pressure Humidity
    00:00 +12°C° 0 mm 1 mps 756 mmHg 97%
    01:00 +11°C° 0 mm 1 mps 755 mmHg 98%
    02:00 +11°C° 0 mm 1 mps 755 mmHg 98%
    03:00 +11°C° 0 mm 1 mps 755 mmHg 98%
    04:00 +11°C° 0 mm 1 mps 755 mmHg 98%
    05:00 +11°C° 0 mm 1 mps 755 mmHg 98%
    06:00 +11°C° 0 mm 1 mps 755 mmHg 98%
    07:00 +10°C° 0 mm 1 mps 756 mmHg 98%
    08:00 +12°C° 0 mm 1 mps 756 mmHg 92%
    09:00 +14°C° 0 mm 1 mps 756 mmHg 87%
    10:00 +15°C° 0 mm 1 mps 756 mmHg 81%
    11:00 +18°C° 0 mm 1 mps 756 mmHg 76%
    12:00 +19°C° 0 mm 1 mps 756 mmHg 70%
    13:00 +19°C° 0 mm 2 mps 755 mmHg 64%
    14:00 +19°C° 0 mm 2 mps 755 mmHg 65%
    15:00 +19°C° 0 mm 2 mps 755 mmHg 65%
    16:00 +18°C° 0 mm 2 mps 755 mmHg 65%
    17:00 +18°C° 0 mm 1 mps 755 mmHg 72%
    18:00 +16°C° 0 mm 1 mps 755 mmHg 79%
    19:00 +14°C° 0 mm 1 mps 756 mmHg 85%
    20:00 +13°C° 0 mm 1 mps 756 mmHg 88%
    21:00 +13°C° 0 mm 1 mps 756 mmHg 91%
    22:00 +12°C° 0 mm 1 mps 757 mmHg 94%
    23:00 +12°C° 0 mm 1 mps 756 mmHg 95%

    30 April, Sunday

    Time Temperature Precipitation Wind Pressure Humidity
    00:00 +11°C° 0 mm 1 mps 756 mmHg 96%
    01:00 +11°C° 0 mm 1 mps 756 mmHg 98%
    02:00 +10°C° 0 mm 1 mps 756 mmHg 98%
    03:00 +10°C° 0 mm 1 mps 756 mmHg 98%
    04:00 +9°C° 0 mm 1 mps 756 mmHg 98%
    05:00 +9°C° 0 mm 1 mps 756 mmHg 98%
    06:00 +9°C° 0 mm 1 mps 756 mmHg 99%
    07:00 +8°C° 0 mm 1 mps 756 mmHg 99%
    08:00 +11°C° 0 mm 1 mps 756 mmHg 88%
    09:00 +12°C° 0 mm 0 mps 756 mmHg 76%
    10:00 +15°C° 0 mm 0 mps 756 mmHg 65%
    11:00 +16°C° 0 mm 0 mps 755 mmHg 59%
    12:00 +18°C° 0 mm 0 mps 755 mmHg 53%
    13:00 +19°C° 0 mm 0 mps 754 mmHg 46%
    14:00 +19°C° 0 mm 0 mps 754 mmHg 47%
    15:00 +19°C° 0 mm 0 mps 753 mmHg 47%
    16:00 +19°C° 0 mm 0 mps 753 mmHg 47%
    17:00 +16°C° 0 mm 0 mps 753 mmHg 58%
    18:00 +13°C° 0 mm 0 mps 753 mmHg 69%
    19:00 +10°C° 0 mm 0 mps 753 mmHg 80%
    20:00 +11°C° 0 mm 1 mps 753 mmHg 83%
    21:00 +10°C° 0 mm 1 mps 753 mmHg 85%
    22:00 +10°C° 0 mm 1 mps 753 mmHg 88%
    23:00 +10°C° 0 mm 1 mps 752 mmHg 90%

    1 May, Monday

    Time Temperature Precipitation Wind Pressure Humidity
    00:00 +8°C° 0 mm 0 mps 752 mmHg 93%
    01:00 +8°C° 0 mm 0 mps 751 mmHg 95%
    02:00 +7°C° 0 mm 0 mps 751 mmHg 96%
    03:00 +7°C° 0 mm 0 mps 751 mmHg 97%
    04:00 +7°C° 0 mm 0 mps 750 mmHg 98%
    05:00 +7°C° 0 mm 0 mps 750 mmHg 98%
    06:00 +7°C° 0 mm 0 mps 750 mmHg 98%
    07:00 +8°C° 0 mm 1 mps 750 mmHg 98%
    08:00 +11°C° 0 mm 1 mps 750 mmHg 89%
    09:00 +13°C° 0 mm 1 mps 750 mmHg 80%
    10:00 +15°C° 0 mm 1 mps 750 mmHg 71%
    11:00 +15°C° 0 mm 1 mps 749 mmHg 70%
    12:00 +16°C° 0 mm 1 mps 749 mmHg 69%
    13:00 +16°C° 0 mm 1 mps 748 mmHg 68%
    14:00 +18°C° 0 mm 1 mps 747 mmHg 66%
    15:00 +18°C° 0 mm 1 mps 747 mmHg 65%
    16:00 +19°C° 0 mm 1 mps 746 mmHg 63%
    17:00 +16°C° 0 mm 1 mps 746 mmHg 69%
    18:00 +15°C° 0 mm 1 mps 746 mmHg 75%
    19:00 +14°C° 0 mm 1 mps 747 mmHg 81%
    20:00 +14°C° 0.2 mm 1 mps 747 mmHg 83%
    21:00 +14°C° 0.2 mm 1 mps 747 mmHg 86%
    22:00 +14°C° 0.2 mm 1 mps 747 mmHg 88%
    23:00 +14°C° 0.4 mm 1 mps 746 mmHg 90%

    2 May, Tuesday

    Time Temperature Precipitation Wind Pressure Humidity
    00:00 +13°C° 0.4 mm 1 mps 746 mmHg 93%
    01:00 +13°C° 0.4 mm 1 mps 746 mmHg 95%
    02:00 +13°C° 0.1 mm 1 mps 746 mmHg 95%
    03:00 +12°C° 0.1 mm 1 mps 746 mmHg 95%
    04:00 +10°C° 0.1 mm 2 mps 746 mmHg 95%
    05:00 +10°C° 0 mm 1 mps 746 mmHg 96%
    06:00 +9°C° 0 mm 1 mps 747 mmHg 97%
    07:00 +8°C° 0 mm 1 mps 747 mmHg 97%
    08:00 +9°C° 0 mm 1 mps 747 mmHg 90%
    09:00 +9°C° 0 mm 2 mps 747 mmHg 82%
    10:00 +10°C° 0 mm 2 mps 748 mmHg 74%
    11:00 +12°C° 0.1 mm 2 mps 747 mmHg 66%
    12:00 +12°C° 0.1 mm 3 mps 747 mmHg 58%
    13:00 +13°C° 0.1 mm 3 mps 747 mmHg 50%
    14:00 +13°C° 0.1 mm 3 mps 747 mmHg 52%
    15:00 +13°C° 0.1 mm 2 mps 747 mmHg 53%
    16:00 +13°C° 0.1 mm 2 mps 747 mmHg 54%
    17:00 +10°C° 0.1 mm 2 mps 748 mmHg 60%
    18:00 +10°C° 0.1 mm 1 mps 748 mmHg 65%
    19:00 +9°C° 0.1 mm 1 mps 749 mmHg 70%
    20:00 +8°C° 0 mm 1 mps 749 mmHg 73%
    21:00 +7°C° 0 mm 1 mps 750 mmHg 76%
    22:00 +7°C° 0 mm 1 mps 750 mmHg 79%
    23:00 +6°C° 0 mm 1 mps 750 mmHg 81%
    Show more